SCP
0 0 0 0 0 0 0 0 0 0 0 0 0 0 0 0 0 0 0 0 0 0 0 0 0 0 0 0 0 0 0 0 0 0 0 0 0 0 0 0 0 0 0 0 0 0 0 0 0 0 0 0 0 0
0 0 0 0 0 0 0 0 0 0 0 0 0 0 0 0 0 0 0 0 0 0 0 0 0 0 0 0 0 0 0 0 0 0 0 0 0 0 0 0 0 0 0 0 0 0 0 0 0 0 0 0 0 0
0 0 0 0 0 0 0 0 0 0 0 0 0 0 0 0 0 0 0 0 0 0 0 0 0 0 0 0 0 0 0 0 0 0 0 0 0 0 0 0 0 0 0 0 0 0 0 0 0 0 0 0 0 0
0 0 0 0 0 0 0 0 0 0 0 0 0 0 0 0 0 0 0 0 0 0 0 0 0 0 0 0 0 0 0 0 0 0 0 0 0 0 0 0 0 0 0 0 0 0 0 0 0 0 0 0 0 0
0 0 0 0 0 0 0 0 0 0 0 0 0 0 0 0 0 0 0 0 0 0 0 0 0 0 0 0 0 0 0 0 0 0 0 0 0 0 0 0 0 0 0 0 0 0 0 0 0 0 0 0 0 0
0 0 0 0 0 0 0 0 0 0 0 0 0 0 0 0 0 0 0 0 0 0 0 0 0 0 0 0 0 0 0 0 0 0 0 0 0 0 0 0 0 0 0 0 0 0 0 0 0 0 0 0 0 0
0 0 0 0 0 0 0 0 0 0 0 0 0 0 0 0 0 0 0 0 0 0 0 0 0 0 0 0 0 0 0 0 0 0 0 0 0 0 0 0 0 0 0 0 0 0 0 0 0 0 0 0 0 0
0 0 0 0 0 0 0 0 0 0 0 0 0 0 0 0 0 0 0 0 0 0 0 0 0 0 0 0 0 0 0 0 0 0 0 0 0 0 0 0 0 0 0 0 0 0 0 0 0 0 0 0 0 0
0 0 0 0 0 0 0 0 0 0 0 0 0 0 0 0 0 0 0 0 0 0 0 0 0 0 0 0 0 0 0 0 0 0 0 0 0 0 0 0 0 0 0 0 0 0 0 0 0 0 0 0 0 0
0 0 0 0 0 0 0 0 0 0 0 0 0 0 0 0 0 0 0 0 0 0 0 0 0 0 0 0 0 0 0 0 0 0 0 0 0 0 0 0 0 0 0 0 0 0 0 0 0 0 0 0 0 0
0 0 0 0 0 0 0 0 0 0 0 0 0 0 0 0 0 0 0 0 0 0 0 0 0 0 0 0 0 0 0 0 0 0 0 0 0 0 0 0 0 0 0 0 0 0 0 0 0 0 0 0 0 0
-0 0 0 0 0 0 0 0 0 0 0 0 0 0 0 0 0 0 0 0 0 0 0 0 0 0 0 0 0 0 0 0 0 0 0 0 0 0 0 0 0 0 0 0 0 0 0 0 0 0 0 0 0 0
-0 0 0 0 0 0 0 0 0 0 0 0 0 0 0 0 0 0 0 0 0 0 0 0 0 0 0 0 0 0 0 0 0 0 0 0 0 0 0 0 0 0 0 0 0 0 0 0 0 0 0 0 0 0
-0 0 0 0 0 0 0 0 0 0 0 0 0 0 0 0 0 0 0 0 0 0 0 0 0 0 0 0 0 0 0 0 0 0 0 0 0 0 0 0 0 0 0 0 0 0 0 0 0 0 0 0 0 0
-0 -0 -0 0 0 0 0 -0 0 0 0 0 0 0 0 0 0 0 0 0 0 0 0 0 0 0 0 0 0 0 0 0 0 0 0 0 0 0 0 0 0 0 0 0 0 0 0 0 0 0 0 0 0 0
0 -0 0 0 0 0 0 0 0 0 0 0 0 0 0 0 0 0 -0 0 0 0 0 0 0 0 0 0 0 0 0 0 0 0 0 0 0 0 0 0 0 0 0 0 0 0 0 0 0 0 0 0 0 0
-0 0 0 0 0 0 0 0 0 0 0 0 0 0 0 0 0 0 0 0 0 0 0 0 0 0 0 0 0 0 0 0 0 0 0 0 0 0 0 0 0 0 0 0 0 0 0 0 0 0 0 0 0 0
0 0 0 0 0 0 0 0 0 0 0 0 0 0 0 0 0 0 0 0 0 0 0 0 0 0 0 0 0 0 0 0 0 0 0 0 0 0 0 0 0 0 0 0 0 0 0 0 0 0 0 0 0 0
0 0 0 0 0 0 0 0 0 0 0 0 0 0 0 0 0 0 0 0 -0 0 0 0 0 0 0 0 0 0 0 0 0 0 0 0 0 0 0 0 0 0 0 0 0 0 0 0 0 0 0 0 0 0
0 0 0 0 0 0 0 0 0 0 0 0 0 0 0 0 0 0 0 0 0 0 0 0 0 0 0 0 0 0 0 0 -0 -0 -0 0 0 0 0 0 0 0 0 0 0 0 0 0 0 0 0 0 0 -0
0 0 0 0 0 0 0 0 0 0 0 0 0 0 0 0 0 0 0 0 0 0 0 0 0 0 0 -0 -0 -0 -0 -0 -0 -0 0 0 0 0 0 0 0 0 0 0 0 0 0 0 0 0 0 0 0 0
0 0 0 0 0 0 0 0 0 0 0 0 0 0 0 0 0 0 0 0 0 0 0 0 0 -0 -0 -0 -0 0 0 0 0 0 0 0 0 0 0 0 0 0 0 0 0 0 -0 -0 0 0 0 0 0 0
0 0 0 0 0 0 0 0 0 0 0 0 0 0 0 0 0 0 0 0 0 0 -0 -0 -0 -0 -0 -0 -0 0 0 0 0 -0 -0 0 0 0 0 0 0 0 0 -0 -0 -0 -0 -0 -0 0 0 0 0 0
0 0 0 0 0 0 0 0 0 0 0 0 0 0 0 0 0 0 0 0 -0 -0 0 -0 -0 -0 0 0 0 0 0 -0 -0 0 0 -0 0 0 -0 0 0 0 -0 -0 -0 -0 0 0 0 0 0 0 0 0
0 0 0 0 0 0 0 0 0 0 0 0 0 0 0 0 0 0 0 0 0 0 0 0 0 0 0 0 0 0 0 -0 -0 0 0 -0 -0 -0 -0 0 -0 -0 -0 0 0 0 0 0 0 0 0 0 0 0
0 0 0 0 0 0 0 0 0 0 0 0 0 0 0 0 0 0 0 0 0 0 -0 0 0 0 0 0 -0 0 -0 0 -0 0 0 -0 -0 -0 0 -0 0 0 -0 0 0 0 0 0 0 0 0 0 0 0
0 0 0 0 0 0 0 0 -0 -0 0 0 0 0 0 0 0 0 0 0 0 0 0 0 0 -0 -0 -0 -0 0 0 0 0 0 -0 0 -0 0 0 0 0 0 0 0 0 0 0 0 0 -0 -0 -0 -0 0
0 0 0 0 0 0 0 -0 0 0 0 0 0 0 0 0 0 0 0 0 0 0 0 0 -0 -0 -0 0 0 -0 -0 -0 0 0 0 0 0 0 0 0 0 0 0 0 0 0 0 0 -0 -0 -0 -0 -0 -0
0 0 -0 -0 -0 0 0 0 0 0 0 0 0 0 0 0 0 0 0 0 0 0 0 -0 -0 -0 -0 0 -0 0 -0 -0 0 0 0 0 0 0 0 0 0 0 -0 -0 0 -0 -0 -0 -0 -0 -0 -0 -0 -0
0 0 0 0 0 0 0 0 0 0 0 0 0 0 0 0 -0 -0 -0 0 -0 -0 -0 -0 -0 -0 -0 -0 -0 -0 0 0 0 0 0 0 0 0 0 0 0 -0 -0 -0 -0 0 0 0 -0 -0 -0 -0 -0 -0
0 0 0 0 0 0 0 0 0 0 0 0 -0 -0 -0 -0 -0 -0 -0 -0 -0 -0 -0 -0 0 0 0 -0 -0 -0 -0 0 0 0 0 0 0 0 0 0 -0 -0 -0 -0 -0 -0 0 -0 -0 -0 -0 -0 0 0
0 0 0 0 0 0 0 0 0 0 0 -0 -0 -0 -0 -0 0 0 0 0 0 -0 -0 -0 0 0 0 0 0 0 0 0 0 0 0 0 0 0 0 0 0 0 -0 -0 -0 -0 -0 0 -0 -0 -0 -0 -0 -0
0 0 0 0 -0 -0 0 0 0 0 0 0 0 0 0 0 0 0 0 -0 -0 -0 -0 -0 -0 0 0 0 0 0 0 0 0 0 0 0 0 0 0 0 0 0 0 -0 -0 -0 0 0 -0 -0 -0 -0 -0 -0
Wind_Speed_500mb
29 35 40 44 45 44 44 42 40 41 45 47 47 47 45 38 36 35 23 29 23 11 38 32 13 22 28 15 5 21 6 15 10 8 6 6 4 7 2 5 9 13 12 8 3 4 13 16 2 8 15 21 14 12
34 36 37 44 47 48 48 47 44 41 39 44 48 49 42 41 35 36 29 27 28 24 16 15 26 15 17 14 18 17 4 3 4 7 3 2 4 4 5 4 9 5 9 7 10 9 7 8 4 6 22 13 4 3
33 38 36 39 46 51 48 47 48 47 44 40 47 52 46 44 40 36 28 23 21 21 37 39 43 21 18 21 18 8 5 7 7 8 6 3 1 5 3 3 7 11 8 6 6 12 12 31 30 26 18 15 10 13
36 39 42 40 44 49 53 49 47 46 47 41 41 50 53 44 44 39 30 28 19 6 7 10 11 29 37 36 25 7 9 5 4 4 3 4 2 2 5 7 5 7 5 4 4 5 17 15 14 11 8 5 5 1
46 44 45 47 45 47 51 52 50 47 45 41 37 49 59 45 37 38 36 36 24 6 6 17 25 11 20 27 15 7 8 10 10 3 3 5 6 3 4 3 4 7 9 7 8 1 6 7 7 5 6 8 11 14
59 53 51 52 47 49 52 52 54 49 46 40 34 46 56 51 42 29 17 37 37 6 7 7 22 20 26 22 13 9 9 6 6 6 8 9 16 4 5 7 10 19 16 13 8 7 7 7 9 6 7 8 12 13
64 59 58 56 50 51 53 54 59 50 48 40 32 47 54 49 43 27 13 19 49 24 6 8 15 17 25 16 8 11 12 8 8 6 9 10 13 10 5 10 18 25 25 13 18 6 7 2 2 7 13 17 19 23
57 62 60 56 56 57 55 54 60 54 47 39 36 48 54 37 43 30 18 21 41 37 9 4 8 2 16 8 5 13 10 14 10 9 7 6 8 10 7 19 40 45 37 28 18 14 13 6 4 7 10 15 17 18
45 54 54 58 62 58 59 58 59 55 46 38 53 51 42 32 36 35 23 11 40 17 8 10 8 7 10 11 6 9 11 2 8 8 9 8 5 9 15 23 29 29 24 19 20 14 6 4 6 14 20 23 23 23
22 36 49 61 62 61 65 62 60 56 46 54 62 26 18 32 23 30 16 7 18 15 12 9 19 5 12 13 7 7 6 5 2 9 7 5 8 38 39 35 29 20 26 21 24 10 5 4 11 16 19 23 22 19
32 43 48 50 62 66 67 66 63 56 69 60 19 10 46 53 19 11 9 13 13 7 13 24 34 7 15 6 5 4 1 2 1 10 9 5 6 17 34 49 56 36 18 21 15 9 3 4 8 7 10 17 20 21
32 44 52 61 65 69 69 65 63 72 55 42 32 54 44 15 8 7 6 8 10 12 12 28 38 25 11 10 9 3 3 4 9 5 4 5 7 6 10 16 31 31 28 24 16 12 5 6 15 22 29 35 39 41
40 44 53 60 67 66 63 61 81 59 52 66 26 13 17 11 7 16 17 10 10 13 19 35 14 19 9 5 8 6 5 7 9 2 6 7 5 33 42 38 32 21 13 5 5 13 21 30 36 42 50 56 58 58
43 44 48 53 55 60 61 67 71 65 50 11 12 12 10 10 12 11 10 13 22 29 41 52 18 9 10 6 6 6 9 5 6 7 6 5 24 36 33 23 10 10 9 16 24 32 39 46 56 62 62 56 56 55
46 48 48 57 36 51 53 72 72 44 10 3 9 9 17 21 20 32 40 30 29 38 57 39 20 13 7 4 5 5 5 7 9 3 5 17 25 23 19 16 14 18 25 34 43 50 54 51 49 52 54 49 49 52
55 46 42 49 52 54 82 59 55 39 4 5 10 7 17 14 14 25 39 27 46 68 56 22 8 6 5 7 9 11 8 6 2 6 16 15 17 17 19 23 29 35 40 44 44 44 45 44 46 52 50 49 47 44
56 49 79 72 83 51 72 63 11 13 12 7 8 17 29 17 15 28 56 54 67 52 7 10 10 12 10 7 9 3 5 6 21 19 10 10 17 25 29 32 32 36 38 39 39 39 41 43 46 46 47 46 40 36
83 72 61 50 71 38 20 11 6 7 4 10 7 8 17 16 42 43 47 60 44 22 15 8 11 6 6 3 6 5 14 20 15 8 8 17 22 27 28 32 32 31 32 32 35 37 38 37 36 37 40 43 43 37
46 27 30 34 33 7 4 3 1 3 2 14 16 26 32 28 35 41 49 41 39 21 9 6 8 5 5 9 13 15 7 4 7 9 12 19 29 32 30 30 32 33 32 32 32 32 26 23 27 32 36 33 28 18
30 29 25 16 8 3 4 6 1 7 4 10 23 32 39 32 40 36 33 17 16 6 15 8 5 11 13 10 5 7 12 14 19 26 28 37 37 37 35 36 34 33 29 27 21 21 18 27 19 24 25 20 20 20
14 16 9 4 5 8 4 5 7 6 4 8 17 17 17 34 28 32 21 18 13 8 10 16 23 17 9 7 8 14 15 18 19 25 39 47 43 37 35 30 27 28 22 18 19 20 11 15 19 19 16 19 20 22
12 16 15 9 10 5 6 23 7 11 14 8 21 20 15 10 13 20 15 17 9 10 11 13 8 10 12 13 15 18 19 21 25 34 34 32 37 36 31 25 27 19 12 14 9 7 8 13 12 13 20 24 23 23
14 14 12 15 11 14 8 16 12 14 6 6 7 8 7 7 7 9 9 7 8 14 13 11 16 14 13 19 29 24 24 31 33 32 31 32 34 29 23 21 9 6 5 3 7 10 8 11 5 20 34 30 30 31
7 7 6 6 8 2 5 7 6 6 7 6 4 6 5 5 5 7 5 4 14 13 6 12 13 18 21 23 26 27 30 30 32 32 30 26 23 17 9 4 4 4 7 5 10 18 2 13 25 38 36 35 28 26
2 3 5 4 1 3 3 3 3 4 2 2 5 3 3 8 4 3 4 9 13 10 5 10 13 16 25 30 26 27 26 19 23 26 18 13 14 5 13 7 6 6 7 11 14 14 26 31 36 40 31 29 27 35
4 5 8 10 7 5 9 6 4 4 4 4 3 10 11 5 4 3 1 14 12 5 5 8 14 20 28 28 22 25 28 26 24 18 5 7 10 16 11 10 6 1 9 10 3 25 31 37 43 35 37 35 49 72
2 1 1 4 3 5 3 8 13 5 7 6 5 5 5 5 4 4 12 8 5 3 7 10 10 22 32 22 15 20 22 18 13 13 7 17 26 21 14 9 3 4 4 5 15 36 38 49 47 43 46 45 60 66
2 4 4 5 4 5 5 7 6 6 2 11 10 3 5 8 6 9 11 8 9 6 6 3 13 29 23 10 18 17 11 5 5 9 22 33 27 28 14 5 10 8 7 17 33 38 41 49 47 47 45 46 57 56
5 5 10 6 6 4 4 4 3 2 4 9 6 4 4 6 17 18 13 8 6 6 3 7 19 30 14 14 14 9 7 6 15 18 31 47 38 21 24 31 30 33 36 34 34 34 39 44 47 48 46 58 63 55
3 2 1 5 7 7 11 12 22 18 15 20 22 33 33 24 19 19 16 8 4 3 2 5 23 22 20 15 18 18 13 16 17 29 60 44 32 30 32 37 42 38 37 34 36 36 40 46 46 47 62 67 56 44
9 11 16 20 11 24 22 26 30 37 41 48 46 46 36 29 23 13 8 9 7 8 6 9 20 19 15 16 11 11 16 20 25 43 51 31 35 39 30 23 31 43 44 38 38 43 50 53 68 74 59 46 31 32
9 6 6 7 8 13 10 12 13 21 34 35 33 35 33 22 14 19 16 8 11 10 9 14 19 27 19 23 24 19 22 30 53 68 44 24 32 28 16 18 22 29 35 40 43 35 54 73 56 47 40 38 34 34
13 16 13 10 10 6 9 11 8 3 9 20 18 26 11 12 8 6 8 11 15 14 9 9 18 23 22 17 24 27 21 53 67 47 28 37 21 28 27 24 23 27 29 29 37 40 42 47 39 37 35 31 30 26
Wind_Direction_500mb
253 256 249 244 243 239 233 231 229 230 228 226 223 221 221 216 229 235 236 209 219 253 266 276 303 333 344 355 20 330 22 19 39 66 114 252 149 252 173 222 170 175 163 203 108 179 284 189 105 173 176 163 146 109
258 250 252 247 240 238 235 227 226 228 228 223 219 217 209 209 220 228 235 211 221 248 260 255 246 236 270 284 323 345 27 40 68 86 63 100 310 12 138 276 357 48 190 189 159 220 325 347 312 151 166 162 166 208
267 258 252 245 242 233 234 230 223 224 226 225 216 212 205 208 213 222 232 210 213 267 279 274 263 214 236 238 286 301 10 37 64 43 144 188 355 119 91 263 15 330 353 88 87 343 97 93 89 87 93 94 68 58
280 260 253 247 240 234 229 228 218 220 218 221 217 207 197 206 210 221 221 210 208 266 273 298 289 270 252 245 253 265 252 251 28 12 58 115 168 136 208 194 152 220 24 97 353 46 95 91 110 126 133 168 226 348
280 270 253 246 238 233 224 222 212 213 211 215 214 202 196 198 204 218 220 208 184 217 298 288 292 237 211 200 220 212 247 244 261 241 107 232 234 107 302 71 231 203 176 141 198 21 239 229 205 243 257 242 246 254
276 265 253 237 232 228 220 212 205 208 207 208 207 197 188 198 205 207 210 221 205 195 309 319 337 196 201 224 227 214 253 277 223 203 212 221 226 225 192 206 240 143 144 138 176 301 288 287 258 273 301 283 272 261
264 253 244 230 224 220 214 201 198 200 199 200 199 188 183 192 193 182 153 168 197 205 257 292 294 207 212 215 218 216 217 231 233 240 230 230 239 197 163 193 230 255 262 274 304 228 176 101 286 329 324 312 290 287
261 250 228 217 211 211 201 193 191 194 191 188 184 177 183 188 192 180 168 159 175 179 219 240 264 204 183 178 211 201 207 216 230 231 248 221 249 212 238 231 248 250 253 267 263 174 162 149 300 344 346 335 330 340
252 228 207 199 198 199 185 178 184 183 178 176 166 164 175 178 167 186 158 150 168 179 190 232 173 231 193 183 200 203 209 169 235 203 233 174 244 230 225 215 215 213 219 243 187 167 170 284 323 331 331 329 328 326
169 173 177 182 184 178 171 173 173 169 166 160 161 156 147 159 156 176 156 148 184 219 242 231 217 210 180 178 206 183 183 205 276 247 239 171 243 245 247 246 262 274 265 203 190 163 130 11 344 331 315 308 317 332
152 160 170 171 163 164 164 167 167 161 155 160 138 97 138 143 142 135 167 199 183 219 225 217 223 169 206 124 177 47 271 248 290 263 152 258 270 251 270 256 250 253 181 136 132 115 84 288 294 294 290 294 300 305
151 151 153 158 158 159 161 164 161 158 172 163 139 130 123 144 122 139 208 201 204 208 213 185 183 203 169 144 108 155 165 281 251 242 180 269 265 297 233 118 130 132 128 127 139 148 167 275 295 300 299 299 300 300
137 142 148 150 153 156 160 159 163 165 156 134 145 142 149 169 158 191 184 195 189 198 189 172 141 152 85 104 100 125 175 248 267 198 236 222 121 101 103 103 101 104 113 115 307 297 294 291 294 302 304 305 306 305
135 138 145 148 149 153 158 161 165 154 154 143 146 136 191 186 215 203 182 176 191 188 173 160 109 109 120 79 117 171 232 248 261 210 211 345 90 90 92 91 98 50 349 316 307 300 299 301 302 301 302 302 301 299
153 151 147 154 157 157 163 160 165 169 134 143 143 183 206 220 216 214 203 190 182 186 153 134 87 87 54 117 237 243 250 235 233 201 137 101 76 73 62 37 4 329 312 306 302 302 302 300 300 302 307 306 304 302
132 136 158 165 160 152 157 157 159 174 223 188 221 218 233 211 250 229 207 181 154 137 134 106 102 112 184 182 174 211 217 221 78 106 112 79 54 28 360 336 318 309 306 304 303 302 304 304 305 313 312 309 309 308
132 130 131 138 145 145 156 162 156 177 185 229 248 240 262 255 150 123 138 139 140 137 127 133 151 188 172 190 203 226 55 112 129 109 82 18 354 338 327 321 316 314 310 306 308 307 308 310 313 312 313 317 319 320
117 132 125 140 160 137 138 151 200 182 208 253 241 85 134 101 141 121 130 141 145 112 161 200 177 151 160 203 58 105 108 109 107 119 326 319 324 325 326 320 318 316 316 317 317 313 314 317 319 322 325 324 320 322
126 132 120 125 140 149 78 94 153 144 11 79 82 112 123 90 115 131 134 139 151 186 243 146 63 71 70 76 121 116 94 7 313 316 308 331 333 332 336 337 334 333 326 323 317 318 322 323 327 330 329 332 346 2
75 80 82 74 58 62 50 17 211 52 29 53 103 111 127 129 120 119 139 183 166 330 42 50 64 95 114 93 36 349 337 329 329 333 334 335 338 336 339 338 331 324 323 326 333 337 335 335 340 335 340 2 35 46
56 43 5 74 44 77 99 331 218 108 41 143 162 137 109 110 119 112 108 118 79 45 73 114 111 100 80 60 359 326 327 328 329 331 328 326 330 327 331 333 333 332 335 342 340 342 23 350 346 358 34 60 77 87
28 47 63 74 36 78 56 14 350 17 90 77 74 76 67 64 56 39 74 57 71 64 112 122 79 24 12 8 353 338 326 314 308 307 307 305 315 322 328 331 326 328 343 345 1 354 342 343 1 42 89 82 96 103
81 65 44 33 42 39 11 21 43 24 52 27 49 71 43 45 43 48 72 67 94 126 124 77 26 14 354 342 343 342 306 299 299 300 299 304 306 310 317 323 310 350 348 335 297 290 301 333 85 107 113 117 121 118
69 55 57 38 48 68 48 35 46 34 51 36 51 85 98 132 87 68 90 98 140 140 92 17 15 347 343 338 326 321 318 311 303 295 293 296 291 301 314 106 101 147 164 267 308 327 293 130 128 126 127 122 109 113
79 70 103 60 65 82 101 91 66 63 108 170 103 109 182 153 98 94 150 154 157 146 92 11 346 348 338 332 334 343 356 323 308 302 304 272 265 231 133 134 160 190 272 299 347 99 118 125 129 135 125 121 117 116
69 185 160 167 176 170 167 121 162 214 154 170 171 125 161 140 104 119 139 150 149 93 357 305 310 331 337 337 332 354 342 0 350 342 317 224 177 154 146 153 160 316 354 327 309 137 132 132 131 129 129 129 126 121
27 219 225 210 200 182 218 128 150 169 213 148 164 147 151 134 103 163 140 164 190 194 268 289 315 338 332 328 329 324 335 329 352 352 39 135 138 130 123 108 41 350 26 77 139 138 139 137 136 134 136 140 137 134
279 256 214 198 227 241 120 149 192 216 210 135 125 97 92 151 191 151 164 153 160 145 9 4 349 345 340 347 335 333 19 19 59 104 123 122 112 110 111 66 75 106 132 131 142 136 144 146 144 143 143 144 145 136
234 237 212 228 227 193 93 84 83 89 206 128 91 93 101 91 143 139 136 134 140 152 350 348 4 360 350 304 334 350 16 31 122 118 122 114 107 88 108 75 81 105 122 129 137 141 145 145 144 148 144 146 141 134
108 96 335 58 73 47 35 104 97 101 119 133 111 112 111 117 116 115 123 117 102 40 272 38 6 358 2 43 66 54 60 140 131 129 131 131 93 107 121 95 98 92 101 123 131 134 145 146 148 148 146 143 140 139
99 63 99 84 80 89 88 103 106 95 98 110 117 118 121 121 102 100 104 92 69 66 59 39 12 14 24 66 57 47 103 132 142 146 140 127 109 115 129 137 124 111 98 96 110 128 134 140 142 142 144 141 143 149
60 75 63 56 66 90 95 64 56 109 136 132 135 137 139 116 91 63 104 85 51 55 69 34 35 30 35 60 63 95 109 130 141 150 156 111 122 129 128 170 176 159 124 117 113 119 148 145 146 141 136 135 143 154
78 87 53 43 14 30 134 116 124 118 135 151 169 178 173 93 85 108 98 38 38 42 79 76 42 25 45 83 83 83 105 144 159 158 141 130 123 86 118 135 136 143 160 158 153 146 148 159 158 157 164 164 162 170
Wind_Speed_850mb
29 35 40 44 45 44 44 42 40 41 45 47 47 47 45 38 36 35 23 29 23 11 38 32 13 22 28 15 5 21 6 15 10 8 6 6 4 7 2 5 9 13 12 8 3 4 13 16 2 8 15 21 14 12
34 36 37 44 47 48 48 47 44 41 39 44 48 49 42 41 35 36 29 27 28 24 16 15 26 15 17 14 18 17 4 3 4 7 3 2 4 4 5 4 9 5 9 7 10 9 7 8 4 6 22 13 4 3
33 38 36 39 46 51 48 47 48 47 44 40 47 52 46 44 40 36 28 23 21 21 37 39 43 21 18 21 18 8 5 7 7 8 6 3 1 5 3 3 7 11 8 6 6 12 12 31 30 26 18 15 10 13
36 39 42 40 44 49 53 49 47 46 47 41 41 50 53 44 44 39 30 28 19 6 7 10 11 29 37 36 25 7 9 5 4 4 3 4 2 2 5 7 5 7 5 4 4 5 17 15 14 11 8 5 5 1
46 44 45 47 45 47 51 52 50 47 45 41 37 49 59 45 37 38 36 36 24 6 6 17 25 11 20 27 15 7 8 10 10 3 3 5 6 3 4 3 4 7 9 7 8 1 6 7 7 5 6 8 11 14
59 53 51 52 47 49 52 52 54 49 46 40 34 46 56 51 42 29 17 37 37 6 7 7 22 20 26 22 13 9 9 6 6 6 8 9 16 4 5 7 10 19 16 13 8 7 7 7 9 6 7 8 12 13
64 59 58 56 50 51 53 54 59 50 48 40 32 47 54 49 43 27 13 19 49 24 6 8 15 17 25 16 8 11 12 8 8 6 9 10 13 10 5 10 18 25 25 13 18 6 7 2 2 7 13 17 19 23
57 62 60 56 56 57 55 54 60 54 47 39 36 48 54 37 43 30 18 21 41 37 9 4 8 2 16 8 5 13 10 14 10 9 7 6 8 10 7 19 40 45 37 28 18 14 13 6 4 7 10 15 17 18
45 54 54 58 62 58 59 58 59 55 46 38 53 51 42 32 36 35 23 11 40 17 8 10 8 7 10 11 6 9 11 2 8 8 9 8 5 9 15 23 29 29 24 19 20 14 6 4 6 14 20 23 23 23
22 36 49 61 62 61 65 62 60 56 46 54 62 26 18 32 23 30 16 7 18 15 12 9 19 5 12 13 7 7 6 5 2 9 7 5 8 38 39 35 29 20 26 21 24 10 5 4 11 16 19 23 22 19
32 43 48 50 62 66 67 66 63 56 69 60 19 10 46 53 19 11 9 13 13 7 13 24 34 7 15 6 5 4 1 2 1 10 9 5 6 17 34 49 56 36 18 21 15 9 3 4 8 7 10 17 20 21
32 44 52 61 65 69 69 65 63 72 55 42 32 54 44 15 8 7 6 8 10 12 12 28 38 25 11 10 9 3 3 4 9 5 4 5 7 6 10 16 31 31 28 24 16 12 5 6 15 22 29 35 39 41
40 44 53 60 67 66 63 61 81 59 52 66 26 13 17 11 7 16 17 10 10 13 19 35 14 19 9 5 8 6 5 7 9 2 6 7 5 33 42 38 32 21 13 5 5 13 21 30 36 42 50 56 58 58
43 44 48 53 55 60 61 67 71 65 50 11 12 12 10 10 12 11 10 13 22 29 41 52 18 9 10 6 6 6 9 5 6 7 6 5 24 36 33 23 10 10 9 16 24 32 39 46 56 62 62 56 56 55
46 48 48 57 36 51 53 72 72 44 10 3 9 9 17 21 20 32 40 30 29 38 57 39 20 13 7 4 5 5 5 7 9 3 5 17 25 23 19 16 14 18 25 34 43 50 54 51 49 52 54 49 49 52
55 46 42 49 52 54 82 59 55 39 4 5 10 7 17 14 14 25 39 27 46 68 56 22 8 6 5 7 9 11 8 6 2 6 16 15 17 17 19 23 29 35 40 44 44 44 45 44 46 52 50 49 47 44
56 49 79 72 83 51 72 63 11 13 12 7 8 17 29 17 15 28 56 54 67 52 7 10 10 12 10 7 9 3 5 6 21 19 10 10 17 25 29 32 32 36 38 39 39 39 41 43 46 46 47 46 40 36
83 72 61 50 71 38 20 11 6 7 4 10 7 8 17 16 42 43 47 60 44 22 15 8 11 6 6 3 6 5 14 20 15 8 8 17 22 27 28 32 32 31 32 32 35 37 38 37 36 37 40 43 43 37
46 27 30 34 33 7 4 3 1 3 2 14 16 26 32 28 35 41 49 41 39 21 9 6 8 5 5 9 13 15 7 4 7 9 12 19 29 32 30 30 32 33 32 32 32 32 26 23 27 32 36 33 28 18
30 29 25 16 8 3 4 6 1 7 4 10 23 32 39 32 40 36 33 17 16 6 15 8 5 11 13 10 5 7 12 14 19 26 28 37 37 37 35 36 34 33 29 27 21 21 18 27 19 24 25 20 20 20
14 16 9 4 5 8 4 5 7 6 4 8 17 17 17 34 28 32 21 18 13 8 10 16 23 17 9 7 8 14 15 18 19 25 39 47 43 37 35 30 27 28 22 18 19 20 11 15 19 19 16 19 20 22
12 16 15 9 10 5 6 23 7 11 14 8 21 20 15 10 13 20 15 17 9 10 11 13 8 10 12 13 15 18 19 21 25 34 34 32 37 36 31 25 27 19 12 14 9 7 8 13 12 13 20 24 23 23
14 14 12 15 11 14 8 16 12 14 6 6 7 8 7 7 7 9 9 7 8 14 13 11 16 14 13 19 29 24 24 31 33 32 31 32 34 29 23 21 9 6 5 3 7 10 8 11 5 20 34 30 30 31
7 7 6 6 8 2 5 7 6 6 7 6 4 6 5 5 5 7 5 4 14 13 6 12 13 18 21 23 26 27 30 30 32 32 30 26 23 17 9 4 4 4 7 5 10 18 2 13 25 38 36 35 28 26
2 3 5 4 1 3 3 3 3 4 2 2 5 3 3 8 4 3 4 9 13 10 5 10 13 16 25 30 26 27 26 19 23 26 18 13 14 5 13 7 6 6 7 11 14 14 26 31 36 40 31 29 27 35
4 5 8 10 7 5 9 6 4 4 4 4 3 10 11 5 4 3 1 14 12 5 5 8 14 20 28 28 22 25 28 26 24 18 5 7 10 16 11 10 6 1 9 10 3 25 31 37 43 35 37 35 49 72
2 1 1 4 3 5 3 8 13 5 7 6 5 5 5 5 4 4 12 8 5 3 7 10 10 22 32 22 15 20 22 18 13 13 7 17 26 21 14 9 3 4 4 5 15 36 38 49 47 43 46 45 60 66
2 4 4 5 4 5 5 7 6 6 2 11 10 3 5 8 6 9 11 8 9 6 6 3 13 29 23 10 18 17 11 5 5 9 22 33 27 28 14 5 10 8 7 17 33 38 41 49 47 47 45 46 57 56
5 5 10 6 6 4 4 4 3 2 4 9 6 4 4 6 17 18 13 8 6 6 3 7 19 30 14 14 14 9 7 6 15 18 31 47 38 21 24 31 30 33 36 34 34 34 39 44 47 48 46 58 63 55
3 2 1 5 7 7 11 12 22 18 15 20 22 33 33 24 19 19 16 8 4 3 2 5 23 22 20 15 18 18 13 16 17 29 60 44 32 30 32 37 42 38 37 34 36 36 40 46 46 47 62 67 56 44
9 11 16 20 11 24 22 26 30 37 41 48 46 46 36 29 23 13 8 9 7 8 6 9 20 19 15 16 11 11 16 20 25 43 51 31 35 39 30 23 31 43 44 38 38 43 50 53 68 74 59 46 31 32
9 6 6 7 8 13 10 12 13 21 34 35 33 35 33 22 14 19 16 8 11 10 9 14 19 27 19 23 24 19 22 30 53 68 44 24 32 28 16 18 22 29 35 40 43 35 54 73 56 47 40 38 34 34
13 16 13 10 10 6 9 11 8 3 9 20 18 26 11 12 8 6 8 11 15 14 9 9 18 23 22 17 24 27 21 53 67 47 28 37 21 28 27 24 23 27 29 29 37 40 42 47 39 37 35 31 30 26
Wind_Direction_850mb
253 256 249 244 243 239 233 231 229 230 228 226 223 221 221 216 229 235 236 209 219 253 266 276 303 333 344 355 20 330 22 19 39 66 114 252 149 252 173 222 170 175 163 203 108 179 284 189 105 173 176 163 146 109
258 250 252 247 240 238 235 227 226 228 228 223 219 217 209 209 220 228 235 211 221 248 260 255 246 236 270 284 323 345 27 40 68 86 63 100 310 12 138 276 357 48 190 189 159 220 325 347 312 151 166 162 166 208
267 258 252 245 242 233 234 230 223 224 226 225 216 212 205 208 213 222 232 210 213 267 279 274 263 214 236 238 286 301 10 37 64 43 144 188 355 119 91 263 15 330 353 88 87 343 97 93 89 87 93 94 68 58
280 260 253 247 240 234 229 228 218 220 218 221 217 207 197 206 210 221 221 210 208 266 273 298 289 270 252 245 253 265 252 251 28 12 58 115 168 136 208 194 152 220 24 97 353 46 95 91 110 126 133 168 226 348
280 270 253 246 238 233 224 222 212 213 211 215 214 202 196 198 204 218 220 208 184 217 298 288 292 237 211 200 220 212 247 244 261 241 107 232 234 107 302 71 231 203 176 141 198 21 239 229 205 243 257 242 246 254
276 265 253 237 232 228 220 212 205 208 207 208 207 197 188 198 205 207 210 221 205 195 309 319 337 196 201 224 227 214 253 277 223 203 212 221 226 225 192 206 240 143 144 138 176 301 288 287 258 273 301 283 272 261
264 253 244 230 224 220 214 201 198 200 199 200 199 188 183 192 193 182 153 168 197 205 257 292 294 207 212 215 218 216 217 231 233 240 230 230 239 197 163 193 230 255 262 274 304 228 176 101 286 329 324 312 290 287
261 250 228 217 211 211 201 193 191 194 191 188 184 177 183 188 192 180 168 159 175 179 219 240 264 204 183 178 211 201 207 216 230 231 248 221 249 212 238 231 248 250 253 267 263 174 162 149 300 344 346 335 330 340
252 228 207 199 198 199 185 178 184 183 178 176 166 164 175 178 167 186 158 150 168 179 190 232 173 231 193 183 200 203 209 169 235 203 233 174 244 230 225 215 215 213 219 243 187 167 170 284 323 331 331 329 328 326
169 173 177 182 184 178 171 173 173 169 166 160 161 156 147 159 156 176 156 148 184 219 242 231 217 210 180 178 206 183 183 205 276 247 239 171 243 245 247 246 262 274 265 203 190 163 130 11 344 331 315 308 317 332
152 160 170 171 163 164 164 167 167 161 155 160 138 97 138 143 142 135 167 199 183 219 225 217 223 169 206 124 177 47 271 248 290 263 152 258 270 251 270 256 250 253 181 136 132 115 84 288 294 294 290 294 300 305
151 151 153 158 158 159 161 164 161 158 172 163 139 130 123 144 122 139 208 201 204 208 213 185 183 203 169 144 108 155 165 281 251 242 180 269 265 297 233 118 130 132 128 127 139 148 167 275 295 300 299 299 300 300
137 142 148 150 153 156 160 159 163 165 156 134 145 142 149 169 158 191 184 195 189 198 189 172 141 152 85 104 100 125 175 248 267 198 236 222 121 101 103 103 101 104 113 115 307 297 294 291 294 302 304 305 306 305
135 138 145 148 149 153 158 161 165 154 154 143 146 136 191 186 215 203 182 176 191 188 173 160 109 109 120 79 117 171 232 248 261 210 211 345 90 90 92 91 98 50 349 316 307 300 299 301 302 301 302 302 301 299
153 151 147 154 157 157 163 160 165 169 134 143 143 183 206 220 216 214 203 190 182 186 153 134 87 87 54 117 237 243 250 235 233 201 137 101 76 73 62 37 4 329 312 306 302 302 302 300 300 302 307 306 304 302
132 136 158 165 160 152 157 157 159 174 223 188 221 218 233 211 250 229 207 181 154 137 134 106 102 112 184 182 174 211 217 221 78 106 112 79 54 28 360 336 318 309 306 304 303 302 304 304 305 313 312 309 309 308
132 130 131 138 145 145 156 162 156 177 185 229 248 240 262 255 150 123 138 139 140 137 127 133 151 188 172 190 203 226 55 112 129 109 82 18 354 338 327 321 316 314 310 306 308 307 308 310 313 312 313 317 319 320
117 132 125 140 160 137 138 151 200 182 208 253 241 85 134 101 141 121 130 141 145 112 161 200 177 151 160 203 58 105 108 109 107 119 326 319 324 325 326 320 318 316 316 317 317 313 314 317 319 322 325 324 320 322
126 132 120 125 140 149 78 94 153 144 11 79 82 112 123 90 115 131 134 139 151 186 243 146 63 71 70 76 121 116 94 7 313 316 308 331 333 332 336 337 334 333 326 323 317 318 322 323 327 330 329 332 346 2
75 80 82 74 58 62 50 17 211 52 29 53 103 111 127 129 120 119 139 183 166 330 42 50 64 95 114 93 36 349 337 329 329 333 334 335 338 336 339 338 331 324 323 326 333 337 335 335 340 335 340 2 35 46
56 43 5 74 44 77 99 331 218 108 41 143 162 137 109 110 119 112 108 118 79 45 73 114 111 100 80 60 359 326 327 328 329 331 328 326 330 327 331 333 333 332 335 342 340 342 23 350 346 358 34 60 77 87
28 47 63 74 36 78 56 14 350 17 90 77 74 76 67 64 56 39 74 57 71 64 112 122 79 24 12 8 353 338 326 314 308 307 307 305 315 322 328 331 326 328 343 345 1 354 342 343 1 42 89 82 96 103
81 65 44 33 42 39 11 21 43 24 52 27 49 71 43 45 43 48 72 67 94 126 124 77 26 14 354 342 343 342 306 299 299 300 299 304 306 310 317 323 310 350 348 335 297 290 301 333 85 107 113 117 121 118
69 55 57 38 48 68 48 35 46 34 51 36 51 85 98 132 87 68 90 98 140 140 92 17 15 347 343 338 326 321 318 311 303 295 293 296 291 301 314 106 101 147 164 267 308 327 293 130 128 126 127 122 109 113
79 70 103 60 65 82 101 91 66 63 108 170 103 109 182 153 98 94 150 154 157 146 92 11 346 348 338 332 334 343 356 323 308 302 304 272 265 231 133 134 160 190 272 299 347 99 118 125 129 135 125 121 117 116
69 185 160 167 176 170 167 121 162 214 154 170 171 125 161 140 104 119 139 150 149 93 357 305 310 331 337 337 332 354 342 0 350 342 317 224 177 154 146 153 160 316 354 327 309 137 132 132 131 129 129 129 126 121
27 219 225 210 200 182 218 128 150 169 213 148 164 147 151 134 103 163 140 164 190 194 268 289 315 338 332 328 329 324 335 329 352 352 39 135 138 130 123 108 41 350 26 77 139 138 139 137 136 134 136 140 137 134
279 256 214 198 227 241 120 149 192 216 210 135 125 97 92 151 191 151 164 153 160 145 9 4 349 345 340 347 335 333 19 19 59 104 123 122 112 110 111 66 75 106 132 131 142 136 144 146 144 143 143 144 145 136
234 237 212 228 227 193 93 84 83 89 206 128 91 93 101 91 143 139 136 134 140 152 350 348 4 360 350 304 334 350 16 31 122 118 122 114 107 88 108 75 81 105 122 129 137 141 145 145 144 148 144 146 141 134
108 96 335 58 73 47 35 104 97 101 119 133 111 112 111 117 116 115 123 117 102 40 272 38 6 358 2 43 66 54 60 140 131 129 131 131 93 107 121 95 98 92 101 123 131 134 145 146 148 148 146 143 140 139
99 63 99 84 80 89 88 103 106 95 98 110 117 118 121 121 102 100 104 92 69 66 59 39 12 14 24 66 57 47 103 132 142 146 140 127 109 115 129 137 124 111 98 96 110 128 134 140 142 142 144 141 143 149
60 75 63 56 66 90 95 64 56 109 136 132 135 137 139 116 91 63 104 85 51 55 69 34 35 30 35 60 63 95 109 130 141 150 156 111 122 129 128 170 176 159 124 117 113 119 148 145 146 141 136 135 143 154
78 87 53 43 14 30 134 116 124 118 135 151 169 178 173 93 85 108 98 38 38 42 79 76 42 25 45 83 83 83 105 144 159 158 141 130 123 86 118 135 136 143 160 158 153 146 148 159 158 157 164 164 162 170